Wetterdaten: Dienstag, 04.08.2015
Datum Zeit Auen-Temp. Temp gefhlt Luftfeuchte Luftdruck Regen Wind Richtung Richtung Taupunkt Windben
04.08.2015 00:00 14,7 C 14,4 C 76 % 1012,4 hPa 0,0 mm 0,0 km/h (0 Bft) N-NO 22 10,5 C 0,0 km/h (0 Bft)
04.08.2015 00:05 14,5 C 14,3 C 76 % 1012,4 hPa 0,0 mm 0,0 km/h (0 Bft) N 360 10,3 C 0,0 km/h (0 Bft)
04.08.2015 00:10 14,5 C 14,2 C 77 % 1012,3 hPa 0,0 mm 0,0 km/h (0 Bft) N-NO 22 10,5 C 0,0 km/h (0 Bft)
04.08.2015 00:15 14,2 C 14,0 C 77 % 1012,3 hPa 0,0 mm 0,0 km/h (0 Bft) N-NO 22 10,2 C 0,0 km/h (0 Bft)
04.08.2015 00:20 14,3 C 14,0 C 77 % 1012,3 hPa 0,0 mm 0,0 km/h (0 Bft) W-SW 247 10,3 C 0,0 km/h (0 Bft)
04.08.2015 00:25 14,3 C 14,0 C 78 % 1012,3 hPa 0,0 mm 0,0 km/h (0 Bft) NW 315 10,5 C 0,0 km/h (0 Bft)
04.08.2015 00:30 14,3 C 14,0 C 78 % 1012,2 hPa 0,0 mm 0,0 km/h (0 Bft) N-NO 22 10,5 C 0,0 km/h (0 Bft)
04.08.2015 00:35 14,2 C 14,0 C 78 % 1012,2 hPa 0,0 mm 0,0 km/h (0 Bft) NO 45 10,4 C 0,0 km/h (0 Bft)
04.08.2015 00:40 14,1 C 13,8 C 78 % 1012,2 hPa 0,0 mm 0,0 km/h (0 Bft) O-NO 67 10,3 C 0,0 km/h (0 Bft)
04.08.2015 00:45 13,9 C 13,7 C 79 % 1012,2 hPa 0,0 mm 0,0 km/h (0 Bft) O-NO 67 10,3 C 0,0 km/h (0 Bft)
04.08.2015 00:50 14,0 C 13,8 C 79 % 1012,2 hPa 0,0 mm 0,0 km/h (0 Bft) O-SO 112 10,4 C 0,0 km/h (0 Bft)
04.08.2015 00:55 14,2 C 14,0 C 77 % 1012,2 hPa 0,0 mm 0,0 km/h (0 Bft) N-NO 22 10,2 C 0,0 km/h (0 Bft)
04.08.2015 01:00 13,7 C 13,5 C 79 % 1012,2 hPa 0,0 mm 0,0 km/h (0 Bft) N-NO 22 10,1 C 0,0 km/h (0 Bft)
04.08.2015 01:05 13,7 C 13,5 C 79 % 1012,2 hPa 0,0 mm 0,0 km/h (0 Bft) NO 45 10,1 C 0,0 km/h (0 Bft)
04.08.2015 01:10 13,5 C 13,3 C 79 % 1012,1 hPa 0,0 mm 0,0 km/h (0 Bft) O 90 9,9 C 0,0 km/h (0 Bft)
04.08.2015 01:15 13,7 C 13,4 C 80 % 1012,1 hPa 0,0 mm 0,0 km/h (0 Bft) NO 45 10,3 C 0,0 km/h (0 Bft)
04.08.2015 01:20 13,3 C 13,1 C 79 % 1012,1 hPa 0,0 mm 0,0 km/h (0 Bft) N 360 9,7 C 0,0 km/h (0 Bft)
04.08.2015 01:25 13,4 C 13,2 C 80 % 1012,1 hPa 0,0 mm 0,0 km/h (0 Bft) O 90 10,0 C 0,0 km/h (0 Bft)
04.08.2015 01:30 13,3 C 13,1 C 80 % 1011,9 hPa 0,0 mm 0,0 km/h (0 Bft) N-NO 22 9,9 C 0,0 km/h (0 Bft)
04.08.2015 01:35 13,2 C 13,1 C 80 % 1011,9 hPa 0,0 mm 0,0 km/h (0 Bft) O-NO 67 9,8 C 0,0 km/h (0 Bft)
04.08.2015 01:40 13,3 C 13,1 C 80 % 1011,9 hPa 0,0 mm 0,0 km/h (0 Bft) N-NO 22 9,9 C 0,0 km/h (0 Bft)
04.08.2015 01:45 13,3 C 13,1 C 80 % 1011,9 hPa 0,0 mm 0,0 km/h (0 Bft) O-NO 67 9,9 C 0,0 km/h (0 Bft)
04.08.2015 01:50 13,6 C 13,4 C 81 % 1011,9 hPa 0,0 mm 0,0 km/h (0 Bft) O-NO 67 10,4 C 0,0 km/h (0 Bft)
04.08.2015 01:55 13,6 C 13,3 C 81 % 1011,9 hPa 0,0 mm 0,0 km/h (0 Bft) O 90 10,4 C 0,0 km/h (0 Bft)
04.08.2015 02:00 13,4 C 13,2 C 81 % 1011,9 hPa 0,0 mm 0,0 km/h (0 Bft) NW 315 10,2 C 0,0 km/h (0 Bft)
04.08.2015 02:05 13,2 C 13,0 C 80 % 1011,9 hPa 0,0 mm 0,0 km/h (0 Bft) N 360 9,8 C 0,0 km/h (0 Bft)
04.08.2015 02:10 13,0 C 12,9 C 81 % 1011,8 hPa 0,0 mm 0,0 km/h (0 Bft) N-NO 22 9,8 C 0,0 km/h (0 Bft)
04.08.2015 02:15 12,9 C 12,7 C 82 % 1011,8 hPa 0,0 mm 0,0 km/h (0 Bft) N-NO 22 9,9 C 0,0 km/h (0 Bft)
04.08.2015 02:20 12,9 C 12,7 C 82 % 1011,8 hPa 0,0 mm 0,0 km/h (0 Bft) N-NO 22 9,9 C 0,0 km/h (0 Bft)
04.08.2015 02:25 12,7 C 12,5 C 82 % 1011,8 hPa 0,0 mm 0,0 km/h (0 Bft) NW 315 9,7 C 0,0 km/h (0 Bft)
04.08.2015 02:30 12,5 C 12,3 C 82 % 1011,6 hPa 0,0 mm 0,0 km/h (0 Bft) N 360 9,5 C 0,0 km/h (0 Bft)
04.08.2015 02:35 12,4 C 12,2 C 82 % 1011,6 hPa 0,0 mm 0,0 km/h (0 Bft) N 360 9,4 C 0,0 km/h (0 Bft)
04.08.2015 02:40 12,4 C 12,1 C 83 % 1011,6 hPa 0,0 mm 0,0 km/h (0 Bft) N-NO 22 9,6 C 0,0 km/h (0 Bft)
04.08.2015 02:45 12,5 C 12,2 C 83 % 1011,6 hPa 0,0 mm 0,0 km/h (0 Bft) N-NO 22 9,7 C 0,0 km/h (0 Bft)
04.08.2015 02:50 12,3 C 12,1 C 83 % 1011,4 hPa 0,0 mm 0,0 km/h (0 Bft) N-NO 22 9,5 C 0,0 km/h (0 Bft)
04.08.2015 02:55 12,3 C 12,1 C 83 % 1011,4 hPa 0,0 mm 0,0 km/h (0 Bft) N-NO 22 9,5 C 0,0 km/h (0 Bft)
04.08.2015 03:00 12,2 C 12,0 C 83 % 1011,4 hPa 0,0 mm 0,0 km/h (0 Bft) N-NO 22 9,4 C 0,0 km/h (0 Bft)
04.08.2015 03:05 12,1 C 11,9 C 83 % 1011,4 hPa 0,0 mm 0,0 km/h (0 Bft) N-NO 22 9,3 C 0,0 km/h (0 Bft)
04.08.2015 03:10 12,2 C 12,0 C 84 % 1011,4 hPa 0,0 mm 0,0 km/h (0 Bft) O-NO 67 9,6 C 0,0 km/h (0 Bft)
04.08.2015 03:15 12,2 C 12,0 C 84 % 1011,4 hPa 0,0 mm 0,0 km/h (0 Bft) O-NO 67 9,6 C 0,0 km/h (0 Bft)
04.08.2015 03:20 12,4 C 12,1 C 85 % 1011,4 hPa 0,0 mm 0,0 km/h (0 Bft) O-NO 67 9,9 C 0,0 km/h (0 Bft)
04.08.2015 03:25 12,3 C 12,0 C 84 % 1011,4 hPa 0,0 mm 0,0 km/h (0 Bft) O-NO 67 9,7 C 0,0 km/h (0 Bft)
04.08.2015 03:30 12,3 C 12,0 C 85 % 1011,2 hPa 0,0 mm 0,0 km/h (0 Bft) O-NO 67 9,9 C 0,0 km/h (0 Bft)
04.08.2015 03:32 12,2 C 12,0 C 85 % 1011,2 hPa 0,0 mm 0,0 km/h (0 Bft) O-NO 67 9,8 C 0,0 km/h (0 Bft)
04.08.2015 03:35 12,2 C 12,0 C 85 % 1011,2 hPa 0,0 mm 0,0 km/h (0 Bft) O-NO 67 9,8 C 0,0 km/h (0 Bft)
04.08.2015 03:40 12,0 C 11,9 C 85 % 1011,2 hPa 0,0 mm 0,0 km/h (0 Bft) O-NO 67 9,6 C 0,0 km/h (0 Bft)
04.08.2015 03:45 12,1 C 11,9 C 85 % 1011,2 hPa 0,0 mm 0,0 km/h (0 Bft) O-NO 67 9,7 C 0,0 km/h (0 Bft)
04.08.2015 03:50 12,0 C 11,8 C 85 % 1011,2 hPa 0,0 mm 0,0 km/h (0 Bft) O-NO 67 9,6 C 0,0 km/h (0 Bft)
04.08.2015 03:55 12,1 C 11,9 C 85 % 1011,2 hPa 0,0 mm 0,0 km/h (0 Bft) S-SW 202 9,7 C 0,0 km/h (0 Bft)
04.08.2015 04:00 12,4 C 12,1 C 86 % 1011,2 hPa 0,0 mm 0,0 km/h (0 Bft) S-SO 157 10,1 C 0,0 km/h (0 Bft)
04.08.2015 04:05 12,2 C 12,0 C 85 % 1011,2 hPa 0,0 mm 0,0 km/h (0 Bft) S-SO 157 9,8 C 0,0 km/h (0 Bft)
04.08.2015 04:10 12,3 C 12,1 C 86 % 1011,1 hPa 0,0 mm 0,0 km/h (0 Bft) O-NO 67 10,0 C 0,0 km/h (0 Bft)
04.08.2015 04:15 12,3 C 12,1 C 86 % 1011,1 hPa 0,0 mm 0,3 km/h (0 Bft) NW 315 10,0 C 4,4 km/h (1 Bft)
04.08.2015 04:20 12,5 C 12,3 C 86 % 1011,1 hPa 0,0 mm 0,3 km/h (0 Bft) O 90 10,2 C 0,0 km/h (0 Bft)
04.08.2015 04:25 12,4 C 12,2 C 86 % 1011,1 hPa 0,0 mm 0,3 km/h (0 Bft) O 90 10,1 C 0,0 km/h (0 Bft)
04.08.2015 04:30 12,3 C 12,1 C 86 % 1010,9 hPa 0,0 mm 0,3 km/h (0 Bft) W-SW 247 10,0 C 4,1 km/h (1 Bft)
04.08.2015 04:35 12,4 C 12,2 C 86 % 1010,9 hPa 0,0 mm 0,3 km/h (0 Bft) S 180 10,1 C 0,0 km/h (0 Bft)
04.08.2015 04:40 12,3 C 12,1 C 86 % 1010,9 hPa 0,0 mm 0,3 km/h (0 Bft) S-SO 157 10,0 C 0,0 km/h (0 Bft)
04.08.2015 04:45 12,3 C 12,1 C 86 % 1010,9 hPa 0,0 mm 0,0 km/h (0 Bft) N-NW 337 10,0 C 0,0 km/h (0 Bft)
04.08.2015 04:50 12,2 C 12,0 C 86 % 1010,8 hPa 0,0 mm 0,0 km/h (0 Bft) W-SW 247 9,9 C 0,0 km/h (0 Bft)
04.08.2015 04:55 12,1 C 12,0 C 86 % 1010,8 hPa 0,0 mm 0,0 km/h (0 Bft) W-SW 247 9,8 C 0,0 km/h (0 Bft)
04.08.2015 05:00 12,2 C 12,0 C 86 % 1010,8 hPa 0,0 mm 0,0 km/h (0 Bft) O 90 9,9 C 0,0 km/h (0 Bft)
04.08.2015 05:05 12,2 C 12,0 C 86 % 1010,8 hPa 0,0 mm 0,0 km/h (0 Bft) O-NO 67 9,9 C 0,0 km/h (0 Bft)
04.08.2015 05:10 12,1 C 11,9 C 86 % 1010,6 hPa 0,0 mm 0,0 km/h (0 Bft) O 90 9,8 C 0,0 km/h (0 Bft)
04.08.2015 05:15 12,1 C 11,9 C 86 % 1010,6 hPa 0,0 mm 0,0 km/h (0 Bft) N-NO 22 9,8 C 0,0 km/h (0 Bft)
04.08.2015 05:20 11,8 C 11,7 C 86 % 1010,6 hPa 0,0 mm 0,0 km/h (0 Bft) N-NO 22 9,5 C 0,0 km/h (0 Bft)
04.08.2015 05:25 11,8 C 11,7 C 86 % 1010,6 hPa 0,0 mm 0,0 km/h (0 Bft) N-NO 22 9,5 C 0,0 km/h (0 Bft)
04.08.2015 05:30 11,7 C 11,6 C 86 % 1010,2 hPa 0,0 mm 0,0 km/h (0 Bft) N-NO 22 9,4 C 0,0 km/h (0 Bft)
04.08.2015 05:35 11,7 C 11,6 C 86 % 1010,2 hPa 0,0 mm 0,0 km/h (0 Bft) O-SO 112 9,4 C 0,0 km/h (0 Bft)
04.08.2015 05:40 12,0 C 11,8 C 86 % 1010,2 hPa 0,0 mm 0,0 km/h (0 Bft) W 270 9,7 C 0,0 km/h (0 Bft)
04.08.2015 05:45 11,9 C 11,8 C 87 % 1010,2 hPa 0,0 mm 0,0 km/h (0 Bft) W 270 9,8 C 0,0 km/h (0 Bft)
04.08.2015 05:50 11,7 C 11,6 C 87 % 1010,6 hPa 0,0 mm 0,0 km/h (0 Bft) W 270 9,6 C 0,0 km/h (0 Bft)
04.08.2015 05:55 11,6 C 11,5 C 87 % 1010,6 hPa 0,0 mm 0,0 km/h (0 Bft) W 270 9,5 C 0,0 km/h (0 Bft)
04.08.2015 06:00 11,5 C 11,4 C 87 % 1010,6 hPa 0,0 mm 0,0 km/h (0 Bft) W 270 9,4 C 0,0 km/h (0 Bft)
04.08.2015 06:05 11,7 C 11,5 C 87 % 1010,6 hPa 0,0 mm 0,0 km/h (0 Bft) W 270 9,6 C 0,0 km/h (0 Bft)
04.08.2015 06:10 11,8 C 11,7 C 87 % 1010,7 hPa 0,0 mm 0,0 km/h (0 Bft) O-SO 112 9,7 C 0,0 km/h (0 Bft)
04.08.2015 06:15 11,9 C 11,8 C 87 % 1010,7 hPa 0,0 mm 0,0 km/h (0 Bft) O-SO 112 9,8 C 0,0 km/h (0 Bft)
04.08.2015 06:20 11,9 C 11,8 C 87 % 1010,7 hPa 0,0 mm 0,0 km/h (0 Bft) NO 45 9,8 C 0,0 km/h (0 Bft)
04.08.2015 06:25 11,9 C 12,0 C 87 % 1010,7 hPa 0,0 mm 0,0 km/h (0 Bft) O-NO 67 9,8 C 0,0 km/h (0 Bft)
04.08.2015 06:30 12,0 C 12,2 C 87 % 1010,9 hPa 0,0 mm 0,0 km/h (0 Bft) O-NO 67 9,9 C 0,0 km/h (0 Bft)
04.08.2015 06:35 12,0 C 12,2 C 87 % 1010,9 hPa 0,0 mm 0,0 km/h (0 Bft) O-NO 67 9,9 C 0,0 km/h (0 Bft)
04.08.2015 06:40 12,2 C 12,8 C 87 % 1010,9 hPa 0,0 mm 0,0 km/h (0 Bft) SO 135 10,1 C 0,0 km/h (0 Bft)
04.08.2015 06:45 12,4 C 14,5 C 88 % 1010,9 hPa 0,0 mm 0,0 km/h (0 Bft) SO 135 10,5 C 0,0 km/h (0 Bft)
04.08.2015 06:50 12,5 C 16,8 C 85 % 1011,0 hPa 0,0 mm 0,0 km/h (0 Bft) O-NO 67 10,0 C 0,0 km/h (0 Bft)
04.08.2015 06:55 12,9 C 17,9 C 85 % 1011,0 hPa 0,0 mm 0,0 km/h (0 Bft) O-NO 67 10,4 C 0,0 km/h (0 Bft)
04.08.2015 07:00 13,3 C 19,0 C 84 % 1011,0 hPa 0,0 mm 0,0 km/h (0 Bft) O 90 10,7 C 0,0 km/h (0 Bft)
04.08.2015 07:05 13,7 C 19,9 C 84 % 1011,0 hPa 0,0 mm 0,0 km/h (0 Bft) O-NO 67 11,0 C 0,0 km/h (0 Bft)
04.08.2015 07:10 14,0 C 21,3 C 83 % 1010,8 hPa 0,0 mm 0,0 km/h (0 Bft) SO 135 11,2 C 0,0 km/h (0 Bft)
04.08.2015 07:15 15,0 C 22,2 C 82 % 1010,8 hPa 0,0 mm 0,0 km/h (0 Bft) N-NO 22 12,0 C 0,0 km/h (0 Bft)
04.08.2015 07:20 15,4 C 23,0 C 84 % 1010,8 hPa 0,0 mm 0,0 km/h (0 Bft) O-NO 67 12,7 C 0,0 km/h (0 Bft)
04.08.2015 07:25 15,5 C 23,2 C 83 % 1010,8 hPa 0,0 mm 0,0 km/h (0 Bft) N-NO 22 12,6 C 0,0 km/h (0 Bft)
04.08.2015 07:30 15,7 C 24,4 C 83 % 1010,6 hPa 0,0 mm 0,0 km/h (0 Bft) O-NO 67 12,8 C 0,0 km/h (0 Bft)
04.08.2015 07:35 15,7 C 25,1 C 82 % 1010,6 hPa 0,0 mm 0,0 km/h (0 Bft) O-NO 67 12,6 C 0,0 km/h (0 Bft)
04.08.2015 07:40 15,9 C 26,1 C 79 % 1010,6 hPa 0,0 mm 0,0 km/h (0 Bft) O 90 12,3 C 0,0 km/h (0 Bft)
04.08.2015 07:45 16,5 C 26,8 C 79 % 1010,6 hPa 0,0 mm 0,0 km/h (0 Bft) NO 45 12,8 C 0,0 km/h (0 Bft)
04.08.2015 07:50 17,4 C 28,2 C 78 % 1010,2 hPa 0,0 mm 0,0 km/h (0 Bft) NO 45 13,5 C 0,0 km/h (0 Bft)
04.08.2015 07:55 18,1 C 28,8 C 76 % 1010,2 hPa 0,0 mm 0,0 km/h (0 Bft) NO 45 13,8 C 0,0 km/h (0 Bft)
04.08.2015 08:00 18,9 C 29,3 C 75 % 1010,2 hPa 0,0 mm 0,0 km/h (0 Bft) O-SO 112 14,4 C 0,0 km/h (0 Bft)
04.08.2015 08:05 19,3 C 29,5 C 74 % 1010,2 hPa 0,0 mm 0,0 km/h (0 Bft) O-SO 112 14,5 C 0,0 km/h (0 Bft)
04.08.2015 08:10 20,0 C 30,4 C 73 % 1010,2 hPa 0,0 mm 0,0 km/h (0 Bft) NO 45 15,0 C 0,0 km/h (0 Bft)
04.08.2015 08:15 21,0 C 31,1 C 72 % 1010,2 hPa 0,0 mm 0,0 km/h (0 Bft) NO 45 15,8 C 0,0 km/h (0 Bft)
04.08.2015 08:20 21,6 C 32,1 C 70 % 1010,2 hPa 0,0 mm 0,0 km/h (0 Bft) NO 45 15,9 C 0,0 km/h (0 Bft)
04.08.2015 08:25 21,8 C 32,6 C 69 % 1010,2 hPa 0,0 mm 0,0 km/h (0 Bft) NO 45 15,9 C 0,0 km/h (0 Bft)
04.08.2015 08:30 22,0 C 33,1 C 68 % 1010,1 hPa 0,0 mm 0,0 km/h (0 Bft) NO 45 15,8 C 0,0 km/h (0 Bft)
04.08.2015 08:35 22,1 C 32,7 C 68 % 1010,1 hPa 0,0 mm 0,0 km/h (0 Bft) NO 45 15,9 C 0,0 km/h (0 Bft)
04.08.2015 08:40 22,0 C 31,8 C 67 % 1010,1 hPa 0,0 mm 0,0 km/h (0 Bft) NO 45 15,6 C 0,0 km/h (0 Bft)
04.08.2015 08:45 21,8 C 31,0 C 67 % 1010,1 hPa 0,0 mm 0,0 km/h (0 Bft) NO 45 15,4 C 0,0 km/h (0 Bft)
04.08.2015 08:50 21,5 C 30,5 C 68 % 1010,5 hPa 0,0 mm 0,0 km/h (0 Bft) NO 45 15,3 C 0,0 km/h (0 Bft)
04.08.2015 08:55 21,8 C 30,2 C 68 % 1010,5 hPa 0,0 mm 0,0 km/h (0 Bft) NO 45 15,6 C 0,0 km/h (0 Bft)
04.08.2015 09:00 21,7 C 30,4 C 68 % 1010,5 hPa 0,0 mm 0,0 km/h (0 Bft) NO 45 15,5 C 0,0 km/h (0 Bft)
04.08.2015 09:05 22,2 C 31,3 C 68 % 1010,5 hPa 0,0 mm 0,0 km/h (0 Bft) NO 45 16,0 C 0,0 km/h (0 Bft)
04.08.2015 09:10 22,5 C 33,0 C 67 % 1010,5 hPa 0,0 mm 0,0 km/h (0 Bft) NO 45 16,1 C 0,0 km/h (0 Bft)
04.08.2015 09:15 23,1 C 34,3 C 66 % 1010,5 hPa 0,0 mm 0,0 km/h (0 Bft) NO 45 16,4 C 0,0 km/h (0 Bft)
04.08.2015 09:20 23,7 C 35,0 C 64 % 1010,5 hPa 0,0 mm 0,0 km/h (0 Bft) NO 45 16,5 C 0,0 km/h (0 Bft)
04.08.2015 09:25 24,0 C 35,4 C 63 % 1010,5 hPa 0,0 mm 0,0 km/h (0 Bft) NO 45 16,5 C 0,0 km/h (0 Bft)
04.08.2015 09:30 24,3 C 35,7 C 62 % 1010,5 hPa 0,0 mm 0,0 km/h (0 Bft) NO 45 16,5 C 0,0 km/h (0 Bft)
04.08.2015 09:33 24,8 C 35,8 C 63 % 1010,5 hPa 0,0 mm 0,3 km/h (0 Bft) N-NO 22 17,3 C 4,9 km/h (1 Bft)
04.08.2015 09:35 24,8 C 35,8 C 63 % 1010,5 hPa 0,0 mm 0,3 km/h (0 Bft) N-NO 22 17,3 C 4,9 km/h (1 Bft)
04.08.2015 09:40 24,9 C 35,3 C 61 % 1010,5 hPa 0,0 mm 0,5 km/h (0 Bft) O-NO 67 16,8 C 0,0 km/h (0 Bft)
04.08.2015 09:45 25,3 C 34,9 C 61 % 1010,5 hPa 0,0 mm 0,5 km/h (0 Bft) NO 45 17,2 C 0,0 km/h (0 Bft)
04.08.2015 09:50 25,8 C 34,7 C 61 % 1010,9 hPa 0,0 mm 0,8 km/h (0 Bft) N-NW 337 17,7 C 3,4 km/h (1 Bft)
04.08.2015 09:55 26,4 C 34,8 C 58 % 1010,9 hPa 0,0 mm 1,0 km/h (0 Bft) N 360 17,5 C 0,0 km/h (0 Bft)
04.08.2015 10:00 26,9 C 35,2 C 57 % 1010,9 hPa 0,0 mm 1,0 km/h (0 Bft) NW 315 17,6 C 5,4 km/h (1 Bft)
04.08.2015 10:05 26,9 C 34,8 C 55 % 1010,9 hPa 0,0 mm 1,8 km/h (1 Bft) W-NW 292 17,1 C 3,1 km/h (1 Bft)
04.08.2015 10:10 26,9 C 34,9 C 55 % 1011,0 hPa 0,0 mm 1,8 km/h (1 Bft) O-NO 67 17,1 C 5,7 km/h (1 Bft)
04.08.2015 10:15 26,7 C 35,1 C 53 % 1011,0 hPa 0,0 mm 0,5 km/h (0 Bft) O-SO 112 16,3 C 0,0 km/h (0 Bft)
04.08.2015 10:20 26,9 C 35,5 C 53 % 1011,0 hPa 0,0 mm 0,0 km/h (0 Bft) O-NO 67 16,5 C 0,0 km/h (0 Bft)
04.08.2015 10:25 26,8 C 35,2 C 51 % 1011,0 hPa 0,0 mm 0,5 km/h (0 Bft) NO 45 15,8 C 3,6 km/h (1 Bft)
04.08.2015 10:30 26,9 C 35,4 C 52 % 1011,1 hPa 0,0 mm 0,8 km/h (0 Bft) NO 45 16,2 C 0,0 km/h (0 Bft)
04.08.2015 10:35 27,3 C 35,6 C 50 % 1011,1 hPa 0,0 mm 1,3 km/h (1 Bft) W-SW 247 15,9 C 3,1 km/h (1 Bft)
04.08.2015 10:40 27,2 C 35,6 C 49 % 1011,1 hPa 0,0 mm 1,3 km/h (1 Bft) SO 135 15,5 C 0,0 km/h (0 Bft)
04.08.2015 10:45 27,5 C 35,7 C 50 % 1011,1 hPa 0,0 mm 1,0 km/h (0 Bft) SO 135 16,1 C 2,6 km/h (1 Bft)
04.08.2015 10:50 27,8 C 36,0 C 50 % 1011,4 hPa 0,0 mm 0,0 km/h (0 Bft) O-SO 112 16,4 C 0,0 km/h (0 Bft)
04.08.2015 10:55 27,7 C 35,4 C 48 % 1011,4 hPa 0,0 mm 1,3 km/h (1 Bft) O 90 15,7 C 0,0 km/h (0 Bft)
04.08.2015 11:00 28,2 C 35,4 C 50 % 1011,4 hPa 0,0 mm 3,1 km/h (1 Bft) NW 315 16,8 C 10,9 km/h (2 Bft)
04.08.2015 11:05 28,5 C 35,3 C 49 % 1011,4 hPa 0,0 mm 3,6 km/h (1 Bft) S-SO 157 16,7 C 3,6 km/h (1 Bft)
04.08.2015 11:10 28,6 C 34,7 C 48 % 1011,4 hPa 0,0 mm 5,2 km/h (1 Bft) W-SW 247 16,5 C 20,5 km/h (4 Bft)
04.08.2015 11:15 28,1 C 34,4 C 47 % 1011,4 hPa 0,0 mm 6,7 km/h (2 Bft) W 270 15,7 C 22,0 km/h (4 Bft)
04.08.2015 11:20 27,9 C 33,0 C 48 % 1011,4 hPa 0,0 mm 8,0 km/h (2 Bft) W-SW 247 15,9 C 5,2 km/h (1 Bft)
04.08.2015 11:25 27,7 C 32,8 C 48 % 1011,4 hPa 0,0 mm 8,5 km/h (2 Bft) W 270 15,7 C 8,3 km/h (2 Bft)
04.08.2015 11:30 27,5 C 31,9 C 48 % 1011,8 hPa 0,0 mm 7,8 km/h (2 Bft) W-NW 292 15,5 C 3,6 km/h (1 Bft)
04.08.2015 11:35 27,5 C 31,7 C 49 % 1011,8 hPa 0,0 mm 6,5 km/h (2 Bft) W-NW 292 15,8 C 6,7 km/h (2 Bft)
04.08.2015 11:40 27,9 C 32,6 C 48 % 1011,8 hPa 0,0 mm 5,2 km/h (1 Bft) W-NW 292 15,9 C 3,9 km/h (1 Bft)
04.08.2015 11:45 27,9 C 32,8 C 48 % 1011,8 hPa 0,0 mm 7,5 km/h (2 Bft) W 270 15,9 C 14,2 km/h (3 Bft)
04.08.2015 11:50 27,6 C 31,2 C 48 % 1011,8 hPa 0,0 mm 9,1 km/h (2 Bft) W 270 15,6 C 12,2 km/h (2 Bft)
04.08.2015 11:55 26,9 C 30,1 C 49 % 1011,8 hPa 0,0 mm 7,3 km/h (2 Bft) SW 225 15,3 C 0,0 km/h (0 Bft)
04.08.2015 12:00 27,3 C 30,6 C 49 % 1011,8 hPa 0,0 mm 6,7 km/h (2 Bft) NW 315 15,6 C 5,2 km/h (1 Bft)
04.08.2015 12:05 28,0 C 31,8 C 47 % 1011,8 hPa 0,0 mm 7,8 km/h (2 Bft) W-NW 292 15,6 C 5,2 km/h (1 Bft)
04.08.2015 12:10 28,1 C 33,0 C 48 % 1011,8 hPa 0,0 mm 8,3 km/h (2 Bft) NW 315 16,0 C 32,4 km/h (5 Bft)
04.08.2015 12:15 28,5 C 33,4 C 47 % 1011,8 hPa 0,0 mm 8,0 km/h (2 Bft) W 270 16,1 C 10,4 km/h (2 Bft)
04.08.2015 12:20 28,3 C 33,0 C 47 % 1011,8 hPa 0,0 mm 9,1 km/h (2 Bft) S-SO 157 15,9 C 14,5 km/h (3 Bft)
04.08.2015 12:25 28,1 C 32,5 C 48 % 1011,8 hPa 0,0 mm 7,8 km/h (2 Bft) W-SW 247 16,0 C 8,3 km/h (2 Bft)
04.08.2015 12:30 28,2 C 32,4 C 48 % 1011,8 hPa 0,0 mm 8,3 km/h (2 Bft) W 270 16,1 C 23,8 km/h (4 Bft)
04.08.2015 12:35 28,6 C 32,9 C 45 % 1011,8 hPa 0,0 mm 10,6 km/h (2 Bft) W-SW 247 15,5 C 19,7 km/h (3 Bft)
04.08.2015 12:40 28,3 C 32,2 C 44 % 1011,8 hPa 0,0 mm 15,0 km/h (3 Bft) W 270 14,9 C 33,4 km/h (5 Bft)
04.08.2015 12:45 28,2 C 31,8 C 44 % 1011,8 hPa 0,0 mm 15,3 km/h (3 Bft) W-SW 247 14,8 C 11,9 km/h (2 Bft)
04.08.2015 12:50 27,8 C 30,7 C 45 % 1011,9 hPa 0,0 mm 14,8 km/h (3 Bft) NW 315 14,8 C 14,5 km/h (3 Bft)
04.08.2015 12:55 27,6 C 30,4 C 46 % 1011,9 hPa 0,0 mm 14,8 km/h (3 Bft) SW 225 14,9 C 16,3 km/h (3 Bft)
04.08.2015 13:00 27,9 C 31,3 C 47 % 1011,9 hPa 0,0 mm 13,2 km/h (3 Bft) W 270 15,5 C 11,4 km/h (2 Bft)
04.08.2015 13:05 27,8 C 31,3 C 47 % 1011,9 hPa 0,0 mm 14,5 km/h (3 Bft) W 270 15,4 C 17,6 km/h (3 Bft)
04.08.2015 13:10 27,6 C 30,8 C 47 % 1011,9 hPa 0,0 mm 15,3 km/h (3 Bft) W 270 15,3 C 41,7 km/h (6 Bft)
04.08.2015 13:15 27,8 C 30,8 C 47 % 1011,9 hPa 0,0 mm 16,3 km/h (3 Bft) W 270 15,4 C 26,2 km/h (4 Bft)
04.08.2015 13:20 27,7 C 30,4 C 48 % 1011,9 hPa 0,0 mm 14,2 km/h (3 Bft) W-SW 247 15,7 C 19,4 km/h (3 Bft)
04.08.2015 13:25 27,8 C 30,1 C 46 % 1011,9 hPa 0,0 mm 14,5 km/h (3 Bft) W 270 15,1 C 34,4 km/h (5 Bft)
04.08.2015 13:30 27,9 C 29,9 C 46 % 1012,2 hPa 0,0 mm 12,9 km/h (3 Bft) W-SW 247 15,2 C 12,2 km/h (2 Bft)
04.08.2015 13:35 28,0 C 29,9 C 45 % 1012,2 hPa 0,0 mm 12,2 km/h (2 Bft) NW 315 14,9 C 9,1 km/h (2 Bft)
04.08.2015 13:40 28,0 C 30,2 C 45 % 1012,2 hPa 0,0 mm 13,7 km/h (3 Bft) SW 225 14,9 C 25,6 km/h (4 Bft)
04.08.2015 13:45 27,8 C 30,1 C 45 % 1012,2 hPa 0,0 mm 12,9 km/h (3 Bft) W 270 14,8 C 8,0 km/h (2 Bft)
04.08.2015 13:50 27,8 C 30,8 C 46 % 1012,6 hPa 0,0 mm 12,2 km/h (2 Bft) NW 315 15,1 C 19,2 km/h (3 Bft)
04.08.2015 13:55 27,9 C 31,0 C 45 % 1012,6 hPa 0,0 mm 13,2 km/h (3 Bft) W-SW 247 14,8 C 8,8 km/h (2 Bft)
04.08.2015 14:00 27,9 C 31,1 C 47 % 1012,6 hPa 0,0 mm 14,5 km/h (3 Bft) W-NW 292 15,5 C 25,9 km/h (4 Bft)
04.08.2015 14:05 27,7 C 31,0 C 46 % 1012,6 hPa 0,0 mm 13,7 km/h (3 Bft) W 270 15,0 C 20,2 km/h (4 Bft)
04.08.2015 14:10 27,6 C 30,8 C 47 % 1012,3 hPa 0,0 mm 16,1 km/h (3 Bft) SW 225 15,3 C 22,0 km/h (4 Bft)
04.08.2015 14:15 27,6 C 30,5 C 46 % 1012,3 hPa 0,0 mm 16,8 km/h (3 Bft) W-NW 292 14,9 C 17,3 km/h (3 Bft)
04.08.2015 14:20 27,5 C 30,5 C 46 % 1012,3 hPa 0,0 mm 16,6 km/h (3 Bft) W 270 14,8 C 27,2 km/h (4 Bft)
04.08.2015 14:25 27,7 C 30,6 C 47 % 1012,3 hPa 0,0 mm 14,2 km/h (3 Bft) S 180 15,3 C 22,8 km/h (4 Bft)
04.08.2015 14:30 27,9 C 31,0 C 46 % 1012,3 hPa 0,0 mm 12,2 km/h (2 Bft) W 270 15,2 C 15,5 km/h (3 Bft)
04.08.2015 14:35 27,7 C 31,0 C 45 % 1012,3 hPa 0,0 mm 12,2 km/h (2 Bft) W-NW 292 14,7 C 8,5 km/h (2 Bft)
04.08.2015 14:40 27,5 C 30,8 C 45 % 1012,3 hPa 0,0 mm 14,2 km/h (3 Bft) NW 315 14,5 C 25,1 km/h (4 Bft)
04.08.2015 14:45 27,4 C 30,5 C 45 % 1012,3 hPa 0,0 mm 15,0 km/h (3 Bft) W 270 14,4 C 20,2 km/h (4 Bft)
04.08.2015 14:50 27,5 C 30,5 C 46 % 1012,1 hPa 0,0 mm 14,2 km/h (3 Bft) NW 315 14,8 C 15,5 km/h (3 Bft)
04.08.2015 14:55 27,6 C 30,7 C 45 % 1012,1 hPa 0,0 mm 12,4 km/h (3 Bft) N-NO 22 14,6 C 12,4 km/h (3 Bft)
04.08.2015 15:00 27,6 C 30,8 C 47 % 1012,1 hPa 0,0 mm 11,9 km/h (2 Bft) W-NW 292 15,3 C 17,9 km/h (3 Bft)
04.08.2015 15:05 27,4 C 30,8 C 45 % 1012,1 hPa 0,0 mm 13,2 km/h (3 Bft) W 270 14,4 C 31,8 km/h (5 Bft)
04.08.2015 15:10 27,4 C 30,6 C 46 % 1012,0 hPa 0,0 mm 15,3 km/h (3 Bft) W-SW 247 14,7 C 22,8 km/h (4 Bft)
04.08.2015 15:15 27,5 C 30,7 C 47 % 1012,0 hPa 0,0 mm 15,0 km/h (3 Bft) W-SW 247 15,2 C 20,5 km/h (4 Bft)
04.08.2015 15:20 27,8 C 31,2 C 47 % 1012,0 hPa 0,0 mm 12,9 km/h (3 Bft) NW 315 15,4 C 16,1 km/h (3 Bft)
04.08.2015 15:25 27,5 C 30,7 C 47 % 1012,0 hPa 0,0 mm 13,7 km/h (3 Bft) W-NW 292 15,2 C 19,9 km/h (4 Bft)
04.08.2015 15:30 27,4 C 30,4 C 46 % 1012,0 hPa 0,0 mm 14,8 km/h (3 Bft) N-NW 337 14,7 C 18,6 km/h (3 Bft)
04.08.2015 15:34 27,3 C 30,6 C 46 % 1012,0 hPa 0,0 mm 14,0 km/h (3 Bft) W-NW 292 14,6 C 20,2 km/h (4 Bft)
04.08.2015 15:35 27,3 C 30,6 C 46 % 1012,0 hPa 0,0 mm 14,0 km/h (3 Bft) W-NW 292 14,6 C 20,2 km/h (4 Bft)
04.08.2015 15:40 27,5 C 30,8 C 47 % 1012,0 hPa 0,0 mm 12,9 km/h (3 Bft) NW 315 15,2 C 31,8 km/h (5 Bft)
04.08.2015 15:45 27,3 C 30,7 C 46 % 1012,0 hPa 0,0 mm 13,7 km/h (3 Bft) W 270 14,6 C 20,2 km/h (4 Bft)
04.08.2015 15:50 27,2 C 30,4 C 46 % 1012,0 hPa 0,0 mm 15,0 km/h (3 Bft) S 180 14,6 C 10,4 km/h (2 Bft)
04.08.2015 15:55 27,1 C 30,3 C 46 % 1012,0 hPa 0,0 mm 14,5 km/h (3 Bft) NW 315 14,5 C 18,6 km/h (3 Bft)
04.08.2015 16:00 27,2 C 30,4 C 47 % 1012,0 hPa 0,0 mm 14,2 km/h (3 Bft) W-NW 292 14,9 C 25,4 km/h (4 Bft)
04.08.2015 16:05 27,1 C 30,2 C 47 % 1012,0 hPa 0,0 mm 14,8 km/h (3 Bft) W 270 14,8 C 36,5 km/h (5 Bft)
04.08.2015 16:10 26,9 C 30,0 C 47 % 1012,1 hPa 0,0 mm 14,8 km/h (3 Bft) W-NW 292 14,6 C 31,3 km/h (5 Bft)
04.08.2015 16:15 26,7 C 29,9 C 49 % 1012,1 hPa 0,0 mm 13,2 km/h (3 Bft) W-NW 292 15,1 C 18,6 km/h (3 Bft)
04.08.2015 16:20 26,4 C 30,3 C 49 % 1012,1 hPa 0,0 mm 10,6 km/h (2 Bft) W-NW 292 14,8 C 16,6 km/h (3 Bft)
04.08.2015 16:25 26,3 C 30,3 C 48 % 1012,1 hPa 0,0 mm 11,7 km/h (2 Bft) W 270 14,4 C 25,6 km/h (4 Bft)
04.08.2015 16:30 26,0 C 30,1 C 49 % 1012,2 hPa 0,0 mm 12,7 km/h (3 Bft) NW 315 14,4 C 24,3 km/h (4 Bft)
04.08.2015 16:35 26,0 C 29,8 C 49 % 1012,2 hPa 0,0 mm 13,7 km/h (3 Bft) N-NW 337 14,4 C 16,8 km/h (3 Bft)
04.08.2015 16:40 25,7 C 29,1 C 50 % 1012,2 hPa 0,0 mm 15,0 km/h (3 Bft) W-NW 292 14,5 C 21,5 km/h (4 Bft)
04.08.2015 16:45 25,7 C 29,0 C 50 % 1012,2 hPa 0,0 mm 14,8 km/h (3 Bft) W-SW 247 14,5 C 12,7 km/h (3 Bft)
04.08.2015 16:50 25,7 C 29,2 C 50 % 1012,0 hPa 0,0 mm 11,7 km/h (2 Bft) N-NW 337 14,5 C 10,9 km/h (2 Bft)
04.08.2015 16:55 25,7 C 28,9 C 49 % 1012,0 hPa 0,0 mm 11,9 km/h (2 Bft) W 270 14,2 C 17,9 km/h (3 Bft)
04.08.2015 17:00 25,6 C 28,0 C 51 % 1012,0 hPa 0,0 mm 11,1 km/h (2 Bft) O-NO 67 14,7 C 6,0 km/h (2 Bft)
04.08.2015 17:05 25,5 C 27,8 C 51 % 1012,0 hPa 0,0 mm 9,8 km/h (2 Bft) W-NW 292 14,6 C 17,6 km/h (3 Bft)
04.08.2015 17:10 25,4 C 27,3 C 51 % 1012,2 hPa 0,0 mm 9,6 km/h (2 Bft) SW 225 14,5 C 11,7 km/h (2 Bft)
04.08.2015 17:15 25,3 C 27,2 C 52 % 1012,2 hPa 0,0 mm 9,1 km/h (2 Bft) S 180 14,7 C 6,0 km/h (2 Bft)
04.08.2015 17:20 25,3 C 27,3 C 53 % 1012,2 hPa 0,0 mm 8,8 km/h (2 Bft) S-SW 202 15,0 C 17,1 km/h (3 Bft)
04.08.2015 17:25 25,1 C 27,1 C 53 % 1012,2 hPa 0,0 mm 9,3 km/h (2 Bft) SW 225 14,8 C 13,2 km/h (3 Bft)
04.08.2015 17:30 24,8 C 26,5 C 54 % 1012,3 hPa 0,0 mm 10,4 km/h (2 Bft) W 270 14,8 C 15,0 km/h (3 Bft)
04.08.2015 17:35 24,6 C 26,3 C 55 % 1012,3 hPa 0,0 mm 9,1 km/h (2 Bft) W-SW 247 14,9 C 8,5 km/h (2 Bft)
04.08.2015 17:40 24,3 C 25,8 C 56 % 1012,3 hPa 0,0 mm 9,6 km/h (2 Bft) W-SW 247 14,9 C 14,5 km/h (3 Bft)
04.08.2015 17:45 24,1 C 25,3 C 56 % 1012,3 hPa 0,0 mm 9,8 km/h (2 Bft) S-SO 157 14,8 C 17,6 km/h (3 Bft)
04.08.2015 17:50 23,8 C 24,7 C 57 % 1012,8 hPa 0,0 mm 8,8 km/h (2 Bft) W-SW 247 14,8 C 14,5 km/h (3 Bft)
04.08.2015 17:55 23,5 C 24,3 C 57 % 1012,8 hPa 0,0 mm 7,8 km/h (2 Bft) S-SO 157 14,5 C 9,3 km/h (2 Bft)
04.08.2015 18:00 23,2 C 24,0 C 58 % 1012,8 hPa 0,0 mm 7,0 km/h (2 Bft) SW 225 14,5 C 10,6 km/h (2 Bft)
04.08.2015 18:05 23,1 C 23,8 C 58 % 1012,8 hPa 0,0 mm 7,3 km/h (2 Bft) W-NW 292 14,4 C 9,1 km/h (2 Bft)
04.08.2015 18:10 23,0 C 23,5 C 58 % 1012,9 hPa 0,0 mm 6,2 km/h (2 Bft) SO 135 14,3 C 7,3 km/h (2 Bft)
04.08.2015 18:15 22,8 C 23,4 C 59 % 1012,9 hPa 0,0 mm 6,7 km/h (2 Bft) W 270 14,4 C 5,7 km/h (1 Bft)
04.08.2015 18:20 22,8 C 23,3 C 59 % 1012,9 hPa 0,0 mm 6,0 km/h (2 Bft) SW 225 14,4 C 3,9 km/h (1 Bft)
04.08.2015 18:25 22,7 C 23,2 C 59 % 1012,9 hPa 0,0 mm 5,4 km/h (1 Bft) NW 315 14,3 C 7,3 km/h (2 Bft)
04.08.2015 18:30 22,7 C 23,2 C 59 % 1012,9 hPa 0,0 mm 6,0 km/h (2 Bft) NW 315 14,3 C 6,7 km/h (2 Bft)
04.08.2015 18:35 22,6 C 23,1 C 59 % 1012,9 hPa 0,0 mm 7,3 km/h (2 Bft) W 270 14,2 C 7,3 km/h (2 Bft)
04.08.2015 18:40 22,5 C 23,0 C 59 % 1012,9 hPa 0,0 mm 7,5 km/h (2 Bft) W-SW 247 14,1 C 12,9 km/h (3 Bft)
04.08.2015 18:45 22,4 C 22,9 C 59 % 1012,9 hPa 0,0 mm 8,0 km/h (2 Bft) NW 315 14,0 C 22,0 km/h (4 Bft)
04.08.2015 18:50 22,4 C 22,7 C 59 % 1012,7 hPa 0,0 mm 7,8 km/h (2 Bft) SW 225 14,0 C 6,0 km/h (2 Bft)
04.08.2015 18:55 22,3 C 22,6 C 59 % 1012,7 hPa 0,0 mm 8,8 km/h (2 Bft) W-SW 247 13,9 C 11,7 km/h (2 Bft)
04.08.2015 19:00 22,2 C 22,5 C 59 % 1012,7 hPa 0,0 mm 8,8 km/h (2 Bft) W-SW 247 13,8 C 7,3 km/h (2 Bft)
04.08.2015 19:05 22,1 C 22,4 C 59 % 1012,7 hPa 0,0 mm 7,8 km/h (2 Bft) W 270 13,7 C 7,3 km/h (2 Bft)
04.08.2015 19:10 22,0 C 22,2 C 59 % 1012,8 hPa 0,0 mm 5,2 km/h (1 Bft) NW 315 13,6 C 0,0 km/h (0 Bft)
04.08.2015 19:15 21,9 C 22,1 C 61 % 1012,8 hPa 0,0 mm 4,4 km/h (1 Bft) W 270 14,0 C 4,4 km/h (1 Bft)
04.08.2015 19:20 21,6 C 21,9 C 63 % 1012,8 hPa 0,0 mm 4,7 km/h (1 Bft) S 180 14,2 C 7,0 km/h (2 Bft)
04.08.2015 19:25 21,5 C 21,7 C 63 % 1012,8 hPa 0,0 mm 4,9 km/h (1 Bft) S 180 14,2 C 4,1 km/h (1 Bft)
04.08.2015 19:30 21,4 C 21,4 C 64 % 1013,2 hPa 0,0 mm 3,9 km/h (1 Bft) W-NW 292 14,3 C 8,5 km/h (2 Bft)
04.08.2015 19:35 21,2 C 21,3 C 64 % 1013,2 hPa 0,0 mm 4,7 km/h (1 Bft) S-SW 202 14,1 C 5,4 km/h (1 Bft)
04.08.2015 19:40 21,0 C 21,1 C 63 % 1013,2 hPa 0,0 mm 6,0 km/h (2 Bft) W 270 13,7 C 10,4 km/h (2 Bft)
04.08.2015 19:45 20,9 C 20,9 C 64 % 1013,2 hPa 0,0 mm 6,5 km/h (2 Bft) W 270 13,8 C 15,0 km/h (3 Bft)
04.08.2015 19:50 20,7 C 20,6 C 65 % 1014,0 hPa 0,0 mm 9,1 km/h (2 Bft) W 270 13,9 C 20,7 km/h (4 Bft)
04.08.2015 19:55 19,3 C 19,0 C 68 % 1014,0 hPa 0,0 mm 8,5 km/h (2 Bft) SW 225 13,2 C 4,1 km/h (1 Bft)
04.08.2015 20:00 18,6 C 18,2 C 72 % 1014,0 hPa 0,0 mm 3,9 km/h (1 Bft) W 270 13,4 C 11,9 km/h (2 Bft)
04.08.2015 20:05 18,4 C 18,0 C 74 % 1014,0 hPa 0,0 mm 3,6 km/h (1 Bft) S-SW 202 13,7 C 5,2 km/h (1 Bft)
04.08.2015 20:10 18,1 C 17,7 C 76 % 1013,7 hPa 0,0 mm 2,3 km/h (1 Bft) NW 315 13,8 C 0,0 km/h (0 Bft)
04.08.2015 20:15 18,2 C 17,9 C 76 % 1013,7 hPa 0,0 mm 0,8 km/h (0 Bft) O 90 13,9 C 0,0 km/h (0 Bft)
04.08.2015 20:20 18,3 C 18,1 C 77 % 1013,7 hPa 0,0 mm 1,3 km/h (1 Bft) NO 45 14,2 C 0,0 km/h (0 Bft)
04.08.2015 20:25 18,2 C 18,0 C 78 % 1013,7 hPa 0,0 mm 1,0 km/h (0 Bft) W 270 14,3 C 0,0 km/h (0 Bft)
04.08.2015 20:30 18,3 C 18,2 C 78 % 1014,1 hPa 0,0 mm 0,3 km/h (0 Bft) W 270 14,4 C 4,1 km/h (1 Bft)
04.08.2015 20:35 18,2 C 18,2 C 76 % 1014,1 hPa 0,0 mm 0,8 km/h (0 Bft) W-SW 247 13,9 C 6,0 km/h (2 Bft)
04.08.2015 20:40 18,2 C 18,0 C 78 % 1014,1 hPa 0,0 mm 3,1 km/h (1 Bft) SW 225 14,3 C 8,0 km/h (2 Bft)
04.08.2015 20:45 18,2 C 17,9 C 78 % 1014,1 hPa 0,0 mm 3,9 km/h (1 Bft) NW 315 14,3 C 2,8 km/h (1 Bft)
04.08.2015 20:50 18,0 C 17,8 C 79 % 1014,2 hPa 0,0 mm 3,6 km/h (1 Bft) S 180 14,3 C 3,6 km/h (1 Bft)
04.08.2015 20:55 18,0 C 17,8 C 77 % 1014,2 hPa 0,0 mm 2,3 km/h (1 Bft) S-SO 157 13,9 C 0,0 km/h (0 Bft)
04.08.2015 21:00 17,8 C 17,6 C 81 % 1014,2 hPa 0,0 mm 1,0 km/h (0 Bft) S-SO 157 14,5 C 0,0 km/h (0 Bft)
04.08.2015 21:05 17,7 C 17,5 C 81 % 1014,2 hPa 0,0 mm 0,3 km/h (0 Bft) S 180 14,4 C 0,0 km/h (0 Bft)
04.08.2015 21:10 17,7 C 17,4 C 82 % 1014,3 hPa 0,0 mm 1,0 km/h (0 Bft) SO 135 14,6 C 3,1 km/h (1 Bft)
04.08.2015 21:15 17,6 C 17,3 C 83 % 1014,3 hPa 0,0 mm 1,6 km/h (1 Bft) SO 135 14,7 C 2,8 km/h (1 Bft)
04.08.2015 21:20 17,4 C 17,1 C 83 % 1014,3 hPa 0,0 mm 1,0 km/h (0 Bft) S-SO 157 14,5 C 0,0 km/h (0 Bft)
04.08.2015 21:25 17,4 C 17,1 C 83 % 1014,3 hPa 0,0 mm 0,5 km/h (0 Bft) S-SO 157 14,5 C 0,0 km/h (0 Bft)
04.08.2015 21:30 17,2 C 16,9 C 82 % 1014,4 hPa 0,0 mm 0,0 km/h (0 Bft) O-SO 112 14,1 C 0,0 km/h (0 Bft)
04.08.2015 21:35 17,2 C 16,9 C 83 % 1014,4 hPa 0,0 mm 0,0 km/h (0 Bft) SO 135 14,3 C 0,0 km/h (0 Bft)
04.08.2015 21:40 17,0 C 16,8 C 83 % 1014,4 hPa 0,0 mm 1,8 km/h (1 Bft) S 180 14,1 C 8,5 km/h (2 Bft)
04.08.2015 21:45 17,0 C 16,8 C 83 % 1014,4 hPa 0,0 mm 2,3 km/h (1 Bft) S 180 14,1 C 3,1 km/h (1 Bft)
04.08.2015 21:50 16,9 C 16,7 C 83 % 1014,5 hPa 0,0 mm 1,3 km/h (1 Bft) S 180 14,0 C 0,0 km/h (0 Bft)
04.08.2015 21:55 16,9 C 16,7 C 81 % 1014,5 hPa 0,0 mm 1,3 km/h (1 Bft) SO 135 13,6 C 3,9 km/h (1 Bft)
04.08.2015 22:00 16,9 C 16,6 C 84 % 1014,5 hPa 0,0 mm 1,8 km/h (1 Bft) S-SO 157 14,2 C 2,8 km/h (1 Bft)
04.08.2015 22:05 16,8 C 16,6 C 84 % 1014,5 hPa 0,0 mm 1,8 km/h (1 Bft) S-SO 157 14,1 C 0,0 km/h (0 Bft)
04.08.2015 22:10 16,7 C 16,5 C 84 % 1014,5 hPa 0,0 mm 0,3 km/h (0 Bft) S-SO 157 14,0 C 0,0 km/h (0 Bft)
04.08.2015 22:15 16,6 C 16,5 C 82 % 1014,5 hPa 0,0 mm 0,0 km/h (0 Bft) S 180 13,5 C 0,0 km/h (0 Bft)
04.08.2015 22:20 16,7 C 16,6 C 82 % 1014,5 hPa 0,0 mm 0,3 km/h (0 Bft) S 180 13,6 C 0,0 km/h (0 Bft)
04.08.2015 22:25 16,8 C 16,7 C 82 % 1014,5 hPa 0,0 mm 1,0 km/h (0 Bft) S 180 13,7 C 2,8 km/h (1 Bft)
04.08.2015 22:30 16,9 C 16,8 C 83 % 1014,6 hPa 0,0 mm 2,8 km/h (1 Bft) S-SO 157 14,0 C 4,4 km/h (1 Bft)
04.08.2015 22:35 17,0 C 16,9 C 85 % 1014,6 hPa 0,0 mm 2,6 km/h (1 Bft) SO 135 14,5 C 3,1 km/h (1 Bft)
04.08.2015 22:40 17,1 C 17,0 C 84 % 1014,6 hPa 0,0 mm 1,3 km/h (1 Bft) S-SW 202 14,4 C 0,0 km/h (0 Bft)
04.08.2015 22:45 17,2 C 17,1 C 84 % 1014,6 hPa 0,0 mm 1,8 km/h (1 Bft) O-SO 112 14,5 C 0,0 km/h (0 Bft)
04.08.2015 22:50 17,2 C 17,2 C 84 % 1014,6 hPa 0,0 mm 2,1 km/h (1 Bft) S-SO 157 14,5 C 0,0 km/h (0 Bft)
04.08.2015 22:55 17,2 C 17,2 C 84 % 1014,6 hPa 0,0 mm 1,8 km/h (1 Bft) SO 135 14,5 C 0,0 km/h (0 Bft)
04.08.2015 23:00 17,2 C 17,2 C 84 % 1014,6 hPa 0,0 mm 1,0 km/h (0 Bft) O 90 14,5 C 0,0 km/h (0 Bft)
04.08.2015 23:05 17,1 C 17,1 C 84 % 1014,6 hPa 0,0 mm 0,0 km/h (0 Bft) O 90 14,4 C 0,0 km/h (0 Bft)
04.08.2015 23:10 17,1 C 17,0 C 84 % 1014,9 hPa 0,0 mm 0,0 km/h (0 Bft) S-SW 202 14,4 C 0,0 km/h (0 Bft)
04.08.2015 23:15 17,1 C 17,1 C 81 % 1014,9 hPa 0,0 mm 0,0 km/h (0 Bft) SO 135 13,8 C 0,0 km/h (0 Bft)
04.08.2015 23:20 17,1 C 17,1 C 81 % 1014,9 hPa 0,0 mm 0,0 km/h (0 Bft) W-SW 247 13,8 C 0,0 km/h (0 Bft)
04.08.2015 23:25 17,2 C 17,1 C 84 % 1014,9 hPa 0,0 mm 0,3 km/h (0 Bft) O-SO 112 14,5 C 0,0 km/h (0 Bft)
04.08.2015 23:30 17,2 C 17,1 C 84 % 1014,9 hPa 0,0 mm 0,5 km/h (0 Bft) SO 135 14,5 C 0,0 km/h (0 Bft)
04.08.2015 23:35 17,2 C 17,2 C 84 % 1014,9 hPa 0,0 mm 0,0 km/h (0 Bft) O-SO 112 14,5 C 0,0 km/h (0 Bft)
04.08.2015 23:40 17,2 C 17,2 C 84 % 1014,9 hPa 0,0 mm 0,0 km/h (0 Bft) W-SW 247 14,5 C 0,0 km/h (0 Bft)
04.08.2015 23:45 17,2 C 17,1 C 84 % 1014,9 hPa 0,0 mm 0,0 km/h (0 Bft) O-SO 112 14,5 C 0,0 km/h (0 Bft)
04.08.2015 23:50 17,1 C 17,1 C 83 % 1015,1 hPa 0,0 mm 0,0 km/h (0 Bft) SO 135 14,2 C 0,0 km/h (0 Bft)
04.08.2015 23:55 17,1 C 17,1 C 83 % 1015,1 hPa 0,0 mm 0,0 km/h (0 Bft) S 180 14,2 C 0,0 km/h (0 Bft)
_ Min-Zeit 06:00 06:00 12:45 08:45 - 23:55 - - 03:05 23:55
Minimum _ 11,5 C 11,4 C 44 % 1010,1 hPa - 0,0 km/h (0 Bft) - - 9,3 C 0,0 km/h (0 Bft)
_ Max-Zeit 12:35 10:50 06:45 23:55 23:55 14:15 - - 09:50 13:10
Maximum _ 28,6 C 36,0 C 88 % 1015,1 hPa 0,0 mm 16,8 km/h
W-NW (3 Bft)
- - 17,7 C 41,7 km/h
W (6 Bft)
Durchschnitt _ 20,0 C 22,5 C 68 % 1012,1 hPa #0,0 mm 4,2 km/h (1 Bft) W - 13,4 C 6,1 km/h (2 Bft)